When you browse on this site, cookies collect data to enhance your experience and personalize the content and advertising you see.
Visit our Privacy Policy to learn more. By continuing to use the site, you agree to this use of cookies and data.
  • In Italy
  • List of Countries
  • For 7 days
  • Water Temperature
  • Satellite Maps
  • Weather Map
  • Weather Widgets
  • user-avatar
    Login

    Hourly Weather Bahchisaraj

    Today, 20 January, Sunday

    Time Temperature Precipitation Wind Pressure Humidity
    00:00 -1°C° 0 mm 2 mps 747 mmHg 86%
    01:00 -1°C° 0 mm 2 mps 747 mmHg 85%
    02:00 -1°C° 0 mm 2 mps 747 mmHg 85%
    03:00 -1°C° 0 mm 2 mps 747 mmHg 84%
    04:00 -1°C° 0 mm 2 mps 747 mmHg 84%
    05:00 -1°C° 0 mm 2 mps 747 mmHg 83%
    06:00 +1°C° 0 mm 2 mps 747 mmHg 83%
    07:00 +1°C° 0 mm 2 mps 747 mmHg 82%
    08:00 +1°C° 0 mm 2 mps 746 mmHg 81%
    09:00 +2°C° 0 mm 2 mps 746 mmHg 77%
    10:00 +3°C° 0 mm 2 mps 746 mmHg 72%
    11:00 +4°C° 0 mm 2 mps 746 mmHg 68%
    12:00 +5°C° 0 mm 2 mps 746 mmHg 67%
    13:00 +5°C° 0 mm 2 mps 746 mmHg 67%
    14:00 +6°C° 0 mm 1 mps 745 mmHg 66%
    15:00 +4°C° 0 mm 2 mps 745 mmHg 71%
    16:00 +3°C° 0 mm 2 mps 745 mmHg 76%
    17:00 +3°C° 0 mm 2 mps 744 mmHg 81%
    18:00 +3°C° 0 mm 2 mps 744 mmHg 81%
    19:00 +2°C° 0 mm 2 mps 744 mmHg 82%
    20:00 +1°C° 0 mm 3 mps 744 mmHg 83%
    21:00 +2°C° 0 mm 3 mps 743 mmHg 83%
    22:00 +2°C° 0 mm 3 mps 743 mmHg 84%
    23:00 +2°C° 0 mm 3 mps 743 mmHg 84%

    Tomorrow, 21 January, Monday

    Time Temperature Precipitation Wind Pressure Humidity
    00:00 +3°C° 0 mm 3 mps 742 mmHg 83%
    01:00 +3°C° 0 mm 4 mps 742 mmHg 82%
    02:00 +3°C° 0 mm 4 mps 741 mmHg 81%
    03:00 +3°C° 0 mm 4 mps 741 mmHg 80%
    04:00 +4°C° 0 mm 4 mps 740 mmHg 80%
    05:00 +4°C° 0 mm 4 mps 740 mmHg 79%
    06:00 +4°C° 0.1 mm 4 mps 740 mmHg 79%
    07:00 +4°C° 0.1 mm 4 mps 740 mmHg 80%
    08:00 +5°C° 0.1 mm 4 mps 739 mmHg 80%
    09:00 +5°C° 0.5 mm 4 mps 739 mmHg 84%
    10:00 +5°C° 0.5 mm 4 mps 740 mmHg 88%
    11:00 +5°C° 0.5 mm 4 mps 740 mmHg 91%
    12:00 +5°C° 0.1 mm 4 mps 740 mmHg 92%
    13:00 +5°C° 0.1 mm 4 mps 739 mmHg 93%
    14:00 +3°C° 0.1 mm 5 mps 739 mmHg 93%
    15:00 +4°C° 0.1 mm 4 mps 740 mmHg 93%
    16:00 +3°C° 0.1 mm 4 mps 740 mmHg 92%
    17:00 +3°C° 0.1 mm 4 mps 741 mmHg 92%
    18:00 +1°C° 0 mm 4 mps 742 mmHg 91%
    19:00 0°C° 0 mm 4 mps 742 mmHg 90%
    20:00 -1°C° 0 mm 4 mps 743 mmHg 90%
    21:00 -1°C° 0 mm 4 mps 743 mmHg 89%
    22:00 -2°C° 0 mm 4 mps 744 mmHg 89%
    23:00 -2°C° 0 mm 4 mps 744 mmHg 88%

    Day after tomorrow, 22 January, Tuesday

    Time Temperature Precipitation Wind Pressure Humidity
    00:00 -3°C° 0 mm 4 mps 744 mmHg 87%
    01:00 -3°C° 0 mm 4 mps 745 mmHg 87%
    02:00 -4°C° 0 mm 4 mps 745 mmHg 86%
    03:00 -4°C° 0 mm 3 mps 745 mmHg 85%
    04:00 -4°C° 0 mm 3 mps 745 mmHg 84%
    05:00 -4°C° 0 mm 3 mps 745 mmHg 83%
    06:00 -4°C° 0 mm 3 mps 746 mmHg 81%
    07:00 -3°C° 0 mm 2 mps 746 mmHg 79%
    08:00 -3°C° 0 mm 2 mps 746 mmHg 77%
    09:00 -2°C° 0 mm 2 mps 747 mmHg 73%
    10:00 -1°C° 0 mm 2 mps 747 mmHg 68%
    11:00 +3°C° 0 mm 1 mps 747 mmHg 64%
    12:00 +3°C° 0 mm 1 mps 746 mmHg 64%
    13:00 +3°C° 0 mm 1 mps 746 mmHg 64%
    14:00 +3°C° 0 mm 1 mps 746 mmHg 63%
    15:00 +3°C° 0 mm 1 mps 745 mmHg 68%
    16:00 +2°C° 0 mm 1 mps 745 mmHg 72%
    17:00 -1°C° 0 mm 2 mps 745 mmHg 76%
    18:00 -1°C° 0 mm 2 mps 745 mmHg 76%
    19:00 -1°C° 0 mm 2 mps 745 mmHg 76%
    20:00 -1°C° 0 mm 3 mps 745 mmHg 76%
    21:00 -1°C° 0 mm 2 mps 744 mmHg 76%
    22:00 -1°C° 0 mm 2 mps 744 mmHg 75%
    23:00 -1°C° 0 mm 2 mps 744 mmHg 75%

    23 January, Wednesday

    Time Temperature Precipitation Wind Pressure Humidity
    00:00 -1°C° 0 mm 2 mps 744 mmHg 75%
    01:00 -1°C° 0 mm 2 mps 743 mmHg 75%
    02:00 -1°C° 0 mm 2 mps 743 mmHg 74%
    03:00 -1°C° 0 mm 2 mps 743 mmHg 74%
    04:00 -1°C° 0 mm 2 mps 742 mmHg 74%
    05:00 -1°C° 0 mm 3 mps 742 mmHg 74%
    06:00 -1°C° 0 mm 3 mps 742 mmHg 75%
    07:00 -1°C° 0 mm 3 mps 742 mmHg 77%
    08:00 0°C° 0 mm 3 mps 742 mmHg 78%
    09:00 +1°C° 0 mm 3 mps 742 mmHg 75%
    10:00 +3°C° 0 mm 3 mps 742 mmHg 73%
    11:00 +4°C° 0 mm 4 mps 742 mmHg 70%
    12:00 +5°C° 0 mm 4 mps 741 mmHg 71%
    13:00 +5°C° 0 mm 4 mps 741 mmHg 71%
    14:00 +5°C° 0 mm 4 mps 740 mmHg 72%
    15:00 +5°C° 0 mm 4 mps 740 mmHg 76%
    16:00 +4°C° 0 mm 4 mps 740 mmHg 81%
    17:00 +3°C° 0 mm 4 mps 740 mmHg 85%
    18:00 +3°C° 0 mm 4 mps 740 mmHg 85%
    19:00 +3°C° 0 mm 5 mps 740 mmHg 84%
    20:00 +3°C° 0 mm 5 mps 740 mmHg 84%
    21:00 +3°C° 0 mm 5 mps 740 mmHg 83%
    22:00 +3°C° 0 mm 5 mps 740 mmHg 82%
    23:00 +5°C° 0 mm 5 mps 740 mmHg 80%

    24 January, Thursday

    Time Temperature Precipitation Wind Pressure Humidity
    00:00 +5°C° 0 mm 5 mps 740 mmHg 79%
    01:00 +5°C° 0 mm 5 mps 739 mmHg 78%
    02:00 +3°C° 0 mm 5 mps 739 mmHg 77%
    03:00 +5°C° 0 mm 5 mps 739 mmHg 77%
    04:00 +5°C° 0 mm 5 mps 738 mmHg 76%
    05:00 +5°C° 0 mm 5 mps 738 mmHg 76%
    06:00 +5°C° 0 mm 4 mps 738 mmHg 76%
    07:00 +5°C° 0 mm 4 mps 738 mmHg 75%
    08:00 +6°C° 0 mm 4 mps 738 mmHg 75%
    09:00 +7°C° 0 mm 4 mps 738 mmHg 72%
    10:00 +9°C° 0 mm 3 mps 738 mmHg 69%
    11:00 +10°C° 0 mm 3 mps 738 mmHg 66%
    12:00 +10°C° 0 mm 3 mps 737 mmHg 65%
    13:00 +10°C° 0 mm 3 mps 737 mmHg 64%
    14:00 +11°C° 0 mm 3 mps 736 mmHg 64%
    15:00 +9°C° 0 mm 3 mps 736 mmHg 67%
    16:00 +8°C° 0 mm 3 mps 736 mmHg 70%
    17:00 +7°C° 0 mm 3 mps 735 mmHg 73%
    18:00 +7°C° 0 mm 3 mps 735 mmHg 72%
    19:00 +6°C° 0 mm 4 mps 735 mmHg 72%
    20:00 +6°C° 0 mm 4 mps 735 mmHg 71%
    21:00 +6°C° 0 mm 4 mps 734 mmHg 72%
    22:00 +5°C° 0 mm 3 mps 734 mmHg 72%
    23:00 +5°C° 0 mm 3 mps 734 mmHg 73%

    25 January, Friday

    Time Temperature Precipitation Wind Pressure Humidity
    00:00 +5°C° 0 mm 3 mps 734 mmHg 73%
    01:00 +7°C° 0 mm 3 mps 733 mmHg 73%
    02:00 +7°C° 0 mm 3 mps 733 mmHg 72%
    03:00 +7°C° 0 mm 3 mps 733 mmHg 72%
    04:00 +5°C° 0 mm 3 mps 733 mmHg 71%
    05:00 +6°C° 0 mm 2 mps 733 mmHg 71%
    06:00 +6°C° 0 mm 2 mps 733 mmHg 72%
    07:00 +7°C° 0 mm 3 mps 733 mmHg 73%
    08:00 +7°C° 0 mm 3 mps 734 mmHg 74%
    09:00 +7°C° 0.2 mm 3 mps 734 mmHg 79%
    10:00 +7°C° 0.2 mm 3 mps 734 mmHg 83%
    11:00 +8°C° 0.2 mm 3 mps 734 mmHg 88%
    12:00 +9°C° 0 mm 3 mps 734 mmHg 85%
    13:00 +9°C° 0 mm 3 mps 734 mmHg 81%
    14:00 +10°C° 0 mm 3 mps 734 mmHg 78%
    15:00 +9°C° 0 mm 3 mps 734 mmHg 80%
    16:00 +8°C° 0 mm 3 mps 734 mmHg 82%
    17:00 +7°C° 0 mm 2 mps 734 mmHg 84%
    18:00 +7°C° 0 mm 3 mps 734 mmHg 83%
    19:00 +7°C° 0 mm 3 mps 735 mmHg 83%
    20:00 +7°C° 0 mm 3 mps 735 mmHg 83%
    21:00 +7°C° 0 mm 3 mps 734 mmHg 81%
    22:00 +7°C° 0 mm 3 mps 734 mmHg 79%
    23:00 +7°C° 0 mm 3 mps 734 mmHg 77%
    Show more